Location: Wildlife_Club
(35.6000°N, 81.4330°W)
Time: 05:27:05
(UTC-04:00)

A-11 Canister half - Pass Details

Date: 14 August 2020
Orbit: 1514 x 1686 km, 47.2° (Epoch: 23 September)

Event Time Altitude Azimuth Distance (km) Brightness Sun altitude
Rises 21:18:37 0° 290° (WNW) 4,778 13.6 -12.7°
Reaches altitude 10° 21:21:56 10° 298° (WNW) 3,817 12.6 -13.3°
Maximum altitude 21:31:09 44° 8° (N) 2,165 9.9 -14.9°
Drops below altitude 10° 21:40:37 10° 78° (ENE) 3,929 10.7 -16.5°
Enters shadow 21:41:20 - 79° (E) 4,131 10.8 -16.7°
